ITHETF43 Weather Reports


time (UTC)temp
F
wind
direction
speed
knots
gust
knots
rain 1hr
in
rain 24hr
in
rain mn
in
humidity
%
barometer
mb
20260507063046 48 0 0.0 3.5 0.00 0.00 0.00 84 1016.3
20260507061552 47 0 0.0 0.0 0.00 0.00 0.00 88 1016.4
20260507060043 46 0 0.0 0.0 0.00 0.00 0.00 90 1016.3
20260507054604 45 0 0.0 0.0 0.00 0.00 0.00 91 1016.2
20260507053049 45 0 0.0 0.0 0.00 0.00 0.00 91 1016.1
20260507051552 44 0 0.0 0.0 0.00 0.00 0.00 91 1016.0
20260507050051 44 0 0.0 0.0 0.00 0.00 0.00 91 1016.0
20260507044556 44 0 0.0 0.0 0.00 0.00 0.00 90 1015.9
20260507043050 44 0 0.0 0.0 0.00 0.00 0.00 90 1015.8
20260507041559 44 0 0.0 0.0 0.00 0.00 0.00 89 1015.7
20260507040104 44 0 0.0 0.0 0.00 0.00 0.00 89 1015.6
20260507034553 45 0 0.0 0.0 0.00 0.00 0.00 89 1015.6
20260507033045 45 0 0.0 0.0 0.00 0.00 0.00 88 1015.6
20260507031546 45 0 0.0 0.0 0.00 0.00 0.00 88 1015.6
20260507030048 46 0 0.0 0.0 0.00 0.00 0.00 88 1015.6
20260507024544 46 0 0.0 0.0 0.00 0.00 0.00 88 1015.6
20260507023044 46 0 0.0 0.0 0.00 0.00 0.00 88 1015.6
20260507021546 46 0 0.0 0.0 0.00 0.00 0.00 88 1015.7
20260507020100 46 0 0.0 1.7 0.00 0.00 0.00 88 1015.6
20260507014559 46 0 0.0 2.6 0.00 0.00 0.00 87 1015.6
20260507013044 46 34 0.9 1.7 0.00 0.00 0.00 87 1015.5
20260507011554 46 0 0.0 1.7 0.00 0.00 0.00 87 1015.5
20260507010043 47 34 0.0 1.7 0.00 0.00 0.00 86 1015.5
20260507004547 47 0 0.9 1.7 0.00 0.00 0.00 86 1015.4
20260507003047 47 0 0.0 1.7 0.00 0.00 0.00 86 1015.4
20260507001555 47 0 0.0 1.7 0.00 0.00 0.00 85 1015.5
20260507000046 47 0 0.0 1.7 0.00 0.00 0.00 85 1015.6
20260506234558 47 0 0.0 0.9 0.00 0.00 0.00 84 1015.6
20260506233052 47 0 0.0 1.7 0.00 0.00 0.00 84 1015.5
20260506231542 48 50 0.0 2.6 0.00 0.00 0.00 84 1015.5
20260506230052 48 68 0.0 2.6 0.00 0.00 0.00 83 1015.5
20260506224546 48 57 0.0 2.6 0.00 0.00 0.00 82 1015.5
20260506223044 48 0 0.0 2.6 0.00 0.00 0.00 82 1015.5
20260506221544 48 78 0.0 2.6 0.00 0.00 0.00 82 1015.4
20260506220057 48 0 0.0 2.6 0.00 0.00 0.00 82 1015.4
20260506214546 48 0 0.0 3.5 0.00 0.00 0.00 82 1015.4
20260506213047 48 152 0.9 2.6 0.00 0.00 0.00 82 1015.3
20260506211547 48 118 0.0 2.6 0.00 0.00 0.00 83 1015.1
20260506210048 48 0 0.0 3.5 0.00 0.00 0.00 84 1015.0
20260506204544 49 129 0.9 3.5 0.00 0.00 0.00 83 1014.9
20260506203138 49 78 0.9 3.5 0.00 0.00 0.00 84 1014.9
20260506201549 49 81 0.0 2.6 0.00 0.00 0.00 84 1014.8
20260506200051 49 0 0.0 3.5 0.00 0.00 0.00 85 1014.7
20260506194552 50 0 0.9 4.3 0.00 0.00 0.00 85 1014.4
20260506193043 50 61 0.9 3.5 0.00 0.00 0.00 85 1014.4
20260506191554 50 55 0.9 3.5 0.00 0.00 0.00 84 1014.3
20260506190054 51 43 0.0 3.5 0.00 0.00 0.00 83 1014.2
20260506184559 51 350 0.9 4.3 0.00 0.00 0.00 82 1014.0
20260506183053 51 82 0.9 3.5 0.00 0.00 0.00 82 1013.9
20260506181545 52 86 0.0 4.3 0.00 0.00 0.00 82 1013.7
20260506180046 52 35 0.9 7.0 0.00 0.00 0.00 81 1013.5
20260506174606 52 90 1.7 5.2 0.00 0.00 0.00 80 1013.3
20260506173055 52 58 1.7 5.2 0.00 0.00 0.00 78 1013.1
20260506171547 53 5 1.7 4.3 0.00 0.00 0.00 76 1013.2
20260506170051 53 360 0.9 4.3 0.00 0.00 0.00 74 1013.2
20260506164557 53 5 0.9 4.3 0.00 0.00 0.00 74 1013.2
20260506163126 53 38 1.7 4.3 0.00 0.00 0.00 75 1013.3
20260506161550 53 13 2.6 6.1 0.00 0.00 0.00 74 1013.2
20260506160053 52 17 0.9 7.0 0.00 0.00 0.00 76 1013.3
20260506154555 52 22 1.7 4.3 0.00 0.00 0.00 76 1013.2
20260506153109 53 16 0.9 5.2 0.00 0.00 0.00 75 1013.1
20260506151553 53 57 1.7 7.0 0.00 0.00 0.00 75 1013.2
20260506150054 53 35 2.6 5.2 0.00 0.00 0.00 74 1013.1
20260506144554 53 355 1.7 6.1 0.00 0.00 0.00 73 1013.1
20260506143050 53 28 2.6 7.8 0.00 0.00 0.00 74 1013.1
20260506141549 53 20 0.9 5.2 0.00 0.00 0.00 76 1013.2
20260506140054 54 75 1.7 4.3 0.00 0.00 0.00 77 1013.1
20260506134552 54 61 1.7 6.1 0.00 0.00 0.00 76 1013.3
20260506133052 54 36 1.7 6.1 0.00 0.00 0.00 74 1013.2
20260506131550 54 67 1.7 8.7 0.00 0.00 0.00 71 1013.1
20260506130057 54 61 4.3 9.6 0.00 0.00 0.00 71 1013.0
20260506124555 54 38 4.3 9.6 0.00 0.00 0.00 70 1013.0
20260506123059 54 355 3.5 8.7 0.00 0.00 0.00 71 1013.0
20260506121608 55 72 1.7 8.7 0.00 0.00 0.00 67 1012.9
20260506120054 55 5 2.6 8.7 0.00 0.00 0.00 69 1012.9
20260506114551 55 28 3.5 8.7 0.00 0.00 0.00 68 1012.8
20260506113050 55 351 3.5 10.4 0.00 0.00 0.00 68 1012.8
20260506111547 56 38 3.5 9.6 0.00 0.00 0.00 67 1012.8
20260506104551 54 47 3.5 8.7 0.00 0.00 0.00 72 1012.8
20260506103051 52 71 2.6 13.0 0.00 0.00 0.00 80 1012.8
20260506101613 51 27 3.5 9.6 0.00 0.00 0.00 83 1012.8
20260506100051 50 11 2.6 7.8 0.00 0.00 0.00 85 1012.8
20260506094553 51 45 3.5 8.7 0.00 0.00 0.00 87 1012.8
20260506093046 51 22 3.5 7.8 0.00 0.00 0.00 88 1012.8
20260506091544 50 21 0.9 5.2 0.00 0.00 0.00 86 1012.8
20260506084551 50 17 3.5 7.8 0.00 0.00 0.00 86 1012.5
20260506083043 49 18 2.6 8.7 0.00 0.00 0.00 85 1012.5
20260506081552 50 16 3.5 8.7 0.00 0.00 0.00 82 1012.6
20260506073045 50 22 1.7 8.7 0.00 0.00 0.00 81 1012.4
20260506071544 49 360 1.7 8.7 0.00 0.00 0.00 83 1012.3